sat.trackr.live / text

‹ back to catalog

LEMUR-2-OBA-NI-JESU

NORAD 58902 · 2024-022D

PAYLOAD ACTIVE UNKNOWN

§ Identity

Operator
Country
US
Launch date
2024-01-31
Launch site
RLLB
Launch vehicle
Mass (kg)
RCS (m²)

Purposes: earth_obs

External: N2YO · Heavens-Above · Gunter

§ Orbital elements

Epoch: 2026-06-13T06:27:58.466016Z

Period
87.98 min
Inclination
97.3603°
Eccentricity
0.0009182
Mean motion
16.36778297 rev/d
Perigee alt
168.4 km
Apogee alt
180.4 km
Semi-major
6,552.5 km
B*
9.0464e-4
RAAN
29.4721°
Arg perigee
248.5343°
Mean anomaly
111.4976°
Rev number
13,270

§ Raw data

LEMUR-2-OBA-NI-JESU1 58902U 24022D   26164.26942669  .07840474  25257-5  90464-3 0  99932 58902  97.3603  29.4721 0009182 248.5343 111.4976 16.36778297132706

JSON: /api/v1/satellites/58902 · /tle

For live sub-satellite position, see the globe view (requires WebGL).

§ Visibility from observer

Set your observer location to see the next 7 days of passes ≥ 10°. The values pass through the URL so the page stays shareable.

No JS? Fill the form by hand. The geolocation button needs JavaScript.